User: anonymous   Login
Location: Unspecified
(0.0000°N, 0.0000°E)
Time: 05:47:19
(UTC+00:00)
Language:

OBJECT T - Orbit

View from above orbital plane
View from above orbital plane
View from above satellite
View from above satellite

Ground track
Ground track

The orbit is defined by the following mean orbital elements,

1 66683U          26145.45241244 +.00000000 +00000-0 +13233-3 0 00001
2 66683  97.4249 219.2570 0007520  79.2204 280.9877 15.18248888    04
Epoch (UTC): 25 May 2026 10:51:28
Eccentricity: 0.0007520
inclination: 97.4249°
perigee height: 506 km
apogee height: 516 km
right ascension of ascending node: 219.2570°
argument of perigee: 79.2204°
revolutions per day: 15.18248888
mean anomaly at epoch: 280.9877°

The dashed part of the orbit path shows where the satellite is in the earth's shadow,  

DLR